HDGA4: War Eagle Creek At Hindsville, AR

                                SHEF ID:       HDGA4     War Eagle Crk nr Hindsville,AR
STATION TYPE:

STAGE RIV-FLOW WTR-TEMP CONDUCT BAT-LOAD
ft cfs F umho/cm volt
Ccp-Rev Ccp-Rev Ccp-Rev Ccp-Rev Ccp-Rev
(America/Chicago)
11/01 00:00 1.31 147 56.05 ---- 11.47
11/01 01:00 1.30 145 55.99 ---- 11.46
11/01 02:00 1.30 145 55.92 ---- 11.46
11/01 03:00 1.29 143 55.83 ---- 11.45
11/01 04:00 1.28 141 55.74 ---- 11.45
11/01 05:00 1.27 139 55.62 ---- 11.45
11/01 06:00 1.26 138 55.45 ---- 11.45
11/01 07:00 1.25 136 55.35 ---- 11.44
11/01 08:00 1.24 134 55.24 ---- 11.45
11/01 09:00 1.24 134 55.18 ---- 11.43
11/01 10:00 1.23 133 55.18 ---- 11.45
11/01 11:00 1.23 133 55.24 ---- 11.45
11/01 12:00 1.22 131 55.40 ---- 11.62
11/01 13:00 1.22 131 55.54 ---- 11.85
11/01 14:00 1.21 129 55.65 ---- 11.71
11/01 15:00 1.20 127 55.72 ---- 11.66
11/01 16:00 1.19 126 56.16 ---- 11.66
11/01 17:00 1.19 126 56.53 ---- 11.61
11/01 18:00 1.18 124 56.70 ---- 11.56
11/01 19:00 1.18 124 56.68 ---- 11.53
11/01 20:00 1.18 124 56.44 ---- 11.51
11/01 21:00 1.17 122 56.08 ---- 11.48
11/01 22:00 1.16 121 55.74 ---- 11.47
11/01 23:00 1.15 119 55.38 ---- 11.45
Data processed at Sun 02Nov2025 04:13 GMT

NOTICE: If you are parsing this page

Please convert to using our Data API. Starting January 1st, 2026 we will be migrating to: https://water.usace.army.mil with modern pages rendered in JavaScript. You will no longer be able to scrape this page! CWMSDataAPI (CDA)

Timeseries IDs (TSIDs)

TSIDs used from left to right in the data table
HIND.Stage.Inst.1Hour.0.Ccp-Rev
HIND.Flow.Inst.1Hour.0.Ccp-Rev
HIND.Temp-Water.Inst.1Hour.0.Ccp-Rev
HIND.Cond.Inst.1Hour.0.Ccp-Rev
HIND.Volt-Battery Load.Inst.1Hour.0.Ccp-Rev

                            

All information presented herein is the property of the government of the United States of America and may be revised or deleted at any time without prior notice. Dissemination of this information without the expressed written consent of the Public Affairs Office, Tulsa District U.S. Army Corps of Engineers is strictly prohibited. These data are gathered electronically and, as presented, have NOT undergone any form of quality control. These data are NOT guaranteed to be valid or correct.